Overview Statistics Trail Chart Weather Telemetry Raw packets
 

This is the latest recevied weather packets stored in our database for station/object OE3APM-13. If no packets are shown the sender has not sent any weather packets the latest 10 day(s).

<< 93 94 95 96 97 98 99 >>
Time Temp. Humidity Pressure Rain* Wind** Luminosity Snow
1787925476 31.67° C 39% 1012.4 hPa 0 mm - 475 W/m² -
1787925173 31.11° C 40% 1012.4 hPa 0 mm - 496 W/m² -
1787924869 31.11° C 40% 1012.5 hPa 0 mm - 533 W/m² -
1787924569 31.11° C 40% 1012.5 hPa 0 mm - 545 W/m² -
1787924269 30.56° C 41% 1012.9 hPa 0 mm - 649 W/m² -
1787923971 30.56° C 41% 1012.9 hPa 0 mm - 302 W/m² -
1787923669 30.56° C 41% 1012.9 hPa 0 mm - 281 W/m² -
1787923367 30.56° C 41% 1012.9 hPa 0 mm - 628 W/m² -
1787923067 30.56° C 40% 1012.8 hPa 0 mm - 246 W/m² -
1787922767 30.56° C 41% 1012.9 hPa 0 mm - 253 W/m² -
1787922468 31.11° C 40% 1012.9 hPa 0 mm - 589 W/m² -
1787922167 31.11° C 41% 1012.9 hPa 0 mm - 580 W/m² -
1787921866 30.56° C 40% 1013 hPa 0 mm - 613 W/m² -
1787921566 30.56° C 41% 1013.1 hPa 0 mm - 605 W/m² -
1787921266 30.56° C 41% 1013.2 hPa 0 mm - 610 W/m² -
1787920966 30.56° C 42% 1013.2 hPa 0 mm - 615 W/m² -
1787920667 30.56° C 41% 1013.2 hPa 0 mm - 624 W/m² -
1787920366 30.56° C 41% 1013.1 hPa 0 mm - 633 W/m² -
1787920063 30.56° C 42% 1013.2 hPa 0 mm - 633 W/m² -
1787919762 30.56° C 41% 1013.3 hPa 0 mm - 640 W/m² -
1787919459 30.56° C 41% 1013.2 hPa 0 mm - 645 W/m² -
1787919159 30.56° C 42% 1013.2 hPa 0 mm - 650 W/m² -
1787918863 30° C 42% 1013.3 hPa 0 mm - 661 W/m² -
1787918558 30° C 42% 1013.4 hPa 0 mm - 668 W/m² -
1787918258 30° C 42% 1013.4 hPa 0 mm - 675 W/m² -

* Rain latest hour (hover to see other rain measurements)
** Current wind speed in m/s (hover to see current wind gust speed)